When you browse on this site, cookies collect data to enhance your experience and personalize the content and advertising you see.
Visit our Privacy Policy to learn more. By continuing to use the site, you agree to this use of cookies and data.
  • In Czech Republic
  • List of Countries
  • For 7 days
  • Water Temperature
  • Satellite Maps
  • Weather Map
  • Weather Widgets
  • user-avatar
    Login

    Hourly Weather Jalalabad

    Today, 24 May, Friday

    Time Temperature Precipitation Wind Pressure Humidity
    00:00 +25°C° 0 mm 1 mps 707 mmHg 48%
    01:00 +25°C° 0 mm 1 mps 707 mmHg 50%
    02:00 +24°C° 0 mm 1 mps 707 mmHg 51%
    03:00 +24°C° 0.1 mm 1 mps 707 mmHg 53%
    04:00 +23°C° 0.1 mm 1 mps 707 mmHg 54%
    05:00 +23°C° 0 mm 1 mps 707 mmHg 58%
    06:00 +23°C° 0.7 mm 1 mps 707 mmHg 56%
    07:00 +24°C° 0.7 mm 1 mps 707 mmHg 54%
    08:00 +24°C° 0.7 mm 1 mps 707 mmHg 52%
    09:00 +25°C° 0.2 mm 2 mps 707 mmHg 50%
    10:00 +26°C° 0.2 mm 2 mps 707 mmHg 47%
    11:00 +27°C° 0.2 mm 2 mps 707 mmHg 45%
    12:00 +28°C° 0.1 mm 2 mps 707 mmHg 42%
    13:00 +29°C° 0.1 mm 2 mps 707 mmHg 39%
    14:00 +30°C° 0.1 mm 2 mps 707 mmHg 36%
    15:00 +30°C° 0.1 mm 2 mps 707 mmHg 35%
    16:00 +30°C° 0.1 mm 2 mps 708 mmHg 33%
    17:00 +30°C° 0.1 mm 2 mps 708 mmHg 32%
    18:00 +30°C° 0.1 mm 1 mps 708 mmHg 34%
    19:00 +29°C° 0.1 mm 1 mps 708 mmHg 35%
    20:00 +26°C° 0.1 mm 0 mps 708 mmHg 37%
    21:00 +28°C° 0 mm 1 mps 709 mmHg 39%
    22:00 +27°C° 0 mm 1 mps 709 mmHg 40%
    23:00 +26°C° 0 mm 1 mps 709 mmHg 42%

    Tomorrow, 25 May, Saturday

    Time Temperature Precipitation Wind Pressure Humidity
    00:00 +26°C° 0 mm 1 mps 709 mmHg 43%
    01:00 +25°C° 0 mm 1 mps 709 mmHg 45%
    02:00 +25°C° 0 mm 1 mps 708 mmHg 46%
    03:00 +24°C° 0 mm 1 mps 708 mmHg 46%
    04:00 +24°C° 0 mm 1 mps 708 mmHg 46%
    05:00 +23°C° 0 mm 1 mps 708 mmHg 46%
    06:00 +25°C° 0 mm 1 mps 708 mmHg 39%
    07:00 +26°C° 0 mm 2 mps 708 mmHg 32%
    08:00 +28°C° 0 mm 2 mps 708 mmHg 25%
    09:00 +29°C° 0 mm 3 mps 708 mmHg 21%
    10:00 +31°C° 0 mm 3 mps 708 mmHg 16%
    11:00 +33°C° 0 mm 4 mps 708 mmHg 12%
    12:00 +35°C° 0 mm 4 mps 708 mmHg 11%
    13:00 +36°C° 0 mm 4 mps 707 mmHg 10%
    14:00 +37°C° 0 mm 4 mps 707 mmHg 9%
    15:00 +37°C° 0 mm 4 mps 707 mmHg 8%
    16:00 +37°C° 0 mm 4 mps 707 mmHg 8%
    17:00 +38°C° 0 mm 4 mps 706 mmHg 8%
    18:00 +36°C° 0 mm 4 mps 707 mmHg 9%
    19:00 +35°C° 0 mm 4 mps 707 mmHg 10%
    20:00 +33°C° 0 mm 4 mps 707 mmHg 11%
    21:00 +32°C° 0 mm 4 mps 707 mmHg 12%
    22:00 +30°C° 0 mm 4 mps 708 mmHg 13%
    23:00 +29°C° 0 mm 4 mps 708 mmHg 14%

    Day after tomorrow, 26 May, Sunday

    Time Temperature Precipitation Wind Pressure Humidity
    00:00 +28°C° 0 mm 4 mps 708 mmHg 16%
    01:00 +27°C° 0 mm 4 mps 708 mmHg 18%
    02:00 +26°C° 0 mm 4 mps 707 mmHg 20%
    03:00 +26°C° 0 mm 4 mps 707 mmHg 21%
    04:00 +25°C° 0 mm 4 mps 707 mmHg 21%
    05:00 +23°C° 0 mm 4 mps 707 mmHg 22%
    06:00 +26°C° 0 mm 4 mps 708 mmHg 20%
    07:00 +27°C° 0 mm 5 mps 708 mmHg 18%
    08:00 +29°C° 0 mm 6 mps 708 mmHg 16%
    09:00 +30°C° 0 mm 6 mps 708 mmHg 14%
    10:00 +33°C° 0 mm 7 mps 708 mmHg 12%
    11:00 +34°C° 0 mm 7 mps 708 mmHg 10%
    12:00 +35°C° 0 mm 6 mps 708 mmHg 9%
    13:00 +35°C° 0 mm 6 mps 708 mmHg 8%
    14:00 +36°C° 0 mm 5 mps 708 mmHg 7%
    15:00 +36°C° 0 mm 5 mps 708 mmHg 7%
    16:00 +36°C° 0 mm 5 mps 708 mmHg 7%
    17:00 +36°C° 0 mm 5 mps 707 mmHg 7%
    18:00 +35°C° 0 mm 4 mps 708 mmHg 9%
    19:00 +33°C° 0 mm 4 mps 708 mmHg 10%
    20:00 +31°C° 0 mm 3 mps 709 mmHg 12%
    21:00 +30°C° 0 mm 3 mps 709 mmHg 14%
    22:00 +29°C° 0 mm 4 mps 709 mmHg 16%
    23:00 +28°C° 0 mm 4 mps 710 mmHg 17%

    27 May, Monday

    Time Temperature Precipitation Wind Pressure Humidity
    00:00 +28°C° 0 mm 3 mps 709 mmHg 18%
    01:00 +27°C° 0 mm 3 mps 709 mmHg 20%
    02:00 +26°C° 0 mm 3 mps 709 mmHg 21%
    03:00 +25°C° 0 mm 3 mps 709 mmHg 21%
    04:00 +25°C° 0 mm 3 mps 709 mmHg 21%
    05:00 +24°C° 0 mm 2 mps 708 mmHg 22%
    06:00 +26°C° 0 mm 2 mps 709 mmHg 19%
    07:00 +27°C° 0 mm 3 mps 709 mmHg 16%
    08:00 +29°C° 0 mm 3 mps 709 mmHg 13%
    09:00 +30°C° 0 mm 3 mps 709 mmHg 11%
    10:00 +33°C° 0 mm 3 mps 709 mmHg 9%
    11:00 +34°C° 0 mm 3 mps 709 mmHg 8%
    12:00 +35°C° 0 mm 3 mps 708 mmHg 7%
    13:00 +36°C° 0 mm 2 mps 708 mmHg 6%
    14:00 +36°C° 0 mm 2 mps 708 mmHg 5%
    15:00 +37°C° 0 mm 2 mps 707 mmHg 5%
    16:00 +37°C° 0 mm 2 mps 707 mmHg 6%
    17:00 +37°C° 0 mm 2 mps 707 mmHg 6%
    18:00 +35°C° 0 mm 2 mps 707 mmHg 8%
    19:00 +33°C° 0 mm 1 mps 708 mmHg 10%
    20:00 +31°C° 0 mm 1 mps 708 mmHg 12%
    21:00 +31°C° 0 mm 1 mps 708 mmHg 13%
    22:00 +30°C° 0 mm 1 mps 709 mmHg 13%
    23:00 +29°C° 0 mm 1 mps 709 mmHg 13%

    28 May, Tuesday

    Time Temperature Precipitation Wind Pressure Humidity
    00:00 +28°C° 0 mm 1 mps 708 mmHg 14%
    01:00 +28°C° 0 mm 1 mps 708 mmHg 14%
    02:00 +27°C° 0 mm 2 mps 708 mmHg 15%
    03:00 +27°C° 0 mm 2 mps 708 mmHg 15%
    04:00 +26°C° 0 mm 2 mps 707 mmHg 16%
    05:00 +25°C° 0 mm 2 mps 707 mmHg 16%
    06:00 +27°C° 0 mm 2 mps 708 mmHg 14%
    07:00 +29°C° 0 mm 2 mps 708 mmHg 12%
    08:00 +31°C° 0 mm 2 mps 708 mmHg 10%
    09:00 +32°C° 0 mm 2 mps 708 mmHg 9%
    10:00 +35°C° 0 mm 3 mps 708 mmHg 7%
    11:00 +36°C° 0 mm 3 mps 708 mmHg 6%
    12:00 +37°C° 0 mm 3 mps 708 mmHg 6%
    13:00 +38°C° 0 mm 2 mps 708 mmHg 5%
    14:00 +38°C° 0 mm 2 mps 707 mmHg 5%
    15:00 +38°C° 0 mm 2 mps 707 mmHg 5%
    16:00 +38°C° 0 mm 2 mps 707 mmHg 5%
    17:00 +39°C° 0 mm 2 mps 707 mmHg 5%
    18:00 +37°C° 0 mm 2 mps 707 mmHg 7%
    19:00 +34°C° 0 mm 1 mps 707 mmHg 10%
    20:00 +32°C° 0 mm 1 mps 708 mmHg 12%
    21:00 +32°C° 0 mm 1 mps 708 mmHg 13%
    22:00 +31°C° 0 mm 1 mps 708 mmHg 13%
    23:00 +30°C° 0 mm 1 mps 709 mmHg 14%

    29 May, Wednesday

    Time Temperature Precipitation Wind Pressure Humidity
    00:00 +29°C° 0 mm 1 mps 708 mmHg 14%
    01:00 +29°C° 0 mm 1 mps 708 mmHg 14%
    02:00 +28°C° 0 mm 2 mps 707 mmHg 14%
    03:00 +27°C° 0 mm 2 mps 707 mmHg 15%
    04:00 +27°C° 0 mm 2 mps 707 mmHg 15%
    05:00 +26°C° 0 mm 2 mps 707 mmHg 15%
    06:00 +28°C° 0 mm 2 mps 707 mmHg 14%
    07:00 +30°C° 0 mm 2 mps 708 mmHg 12%
    08:00 +32°C° 0 mm 2 mps 708 mmHg 10%
    09:00 +34°C° 0 mm 2 mps 708 mmHg 9%
    10:00 +35°C° 0 mm 2 mps 708 mmHg 8%
    11:00 +37°C° 0 mm 2 mps 708 mmHg 6%
    12:00 +38°C° 0 mm 2 mps 707 mmHg 6%
    13:00 +38°C° 0 mm 2 mps 707 mmHg 5%
    14:00 +39°C° 0 mm 2 mps 706 mmHg 5%
    15:00 +39°C° 0 mm 2 mps 706 mmHg 5%
    16:00 +39°C° 0 mm 2 mps 706 mmHg 5%
    17:00 +39°C° 0 mm 2 mps 706 mmHg 5%
    18:00 +37°C° 0 mm 2 mps 706 mmHg 7%
    19:00 +35°C° 0 mm 1 mps 706 mmHg 10%
    20:00 +33°C° 0 mm 1 mps 707 mmHg 12%
    21:00 +32°C° 0 mm 1 mps 707 mmHg 12%
    22:00 +31°C° 0 mm 1 mps 707 mmHg 13%
    23:00 +31°C° 0 mm 1 mps 707 mmHg 13%
    Show more